Location: Malvern Link
(52.1333°N, 2.3000°W)
Time: 01:32:53
(UTC+00:00)

Cosmos 1634 Rocket - Pass Details

Date: 03 December 2021
Orbit: 959 x 993 km, 82.9° (Epoch: 21 January)

Event Time Altitude Azimuth Distance (km) Brightness Sun altitude
Rises 05:19:23 0° 348° (NNW) 3,713 6.9 -23.3°
Reaches altitude 10° 05:21:56 10° 345° (NNW) 2,756 6.1 -22.9°
Maximum altitude 05:28:11 66° 266° (W) 1,071 3.9 -21.9°
Drops below altitude 10° 05:34:19 10° 186° (S) 2,714 6.4 -21.0°
Sets 05:36:49 0° 183° (S) 3,652 7.1 -20.6°
